| time (UTC) | temp F | wind direction | speed MPH | gust MPH | rain 1hr in | rain 24hr in | rain mn in | humidity % | barometer mb |
| 20260504234557 | 55 | 357 | 2.0 | 15.0 | 0.00 | 0.00 | 0.00 | 56 | 1012.9 |
| 20260504234042 | 55 | 324 | 4.0 | 15.0 | 0.00 | 0.00 | 0.00 | 55 | 1012.9 |
| 20260504233545 | 55 | 18 | 3.0 | 11.0 | 0.00 | 0.00 | 0.00 | 55 | 1012.9 |
| 20260504233057 | 55 | 319 | 1.0 | 10.0 | 0.00 | 0.00 | 0.00 | 55 | 1012.9 |
| 20260504232542 | 55 | 324 | 2.0 | 15.0 | 0.00 | 0.00 | 0.00 | 54 | 1013.0 |
| 20260504232044 | 55 | 341 | 5.0 | 15.0 | 0.00 | 0.00 | 0.00 | 54 | 1012.9 |
| 20260504231559 | 55 | 0 | 2.0 | 8.0 | 0.00 | 0.00 | 0.00 | 54 | 1013.0 |
| 20260504231044 | 55 | 305 | 1.0 | 9.0 | 0.00 | 0.00 | 0.00 | 55 | 1013.0 |
| 20260504230544 | 55 | 295 | 3.0 | 9.0 | 0.00 | 0.00 | 0.00 | 55 | 1013.0 |
| 20260504230058 | 55 | 245 | 2.0 | 9.0 | 0.00 | 0.00 | 0.00 | 56 | 1012.9 |
| 20260504225542 | 55 | 0 | 2.0 | 9.0 | 0.00 | 0.00 | 0.00 | 56 | 1012.8 |
| 20260504225042 | 56 | 327 | 2.0 | 8.0 | 0.00 | 0.00 | 0.00 | 56 | 1012.8 |
| 20260504224551 | 56 | 236 | 2.0 | 7.0 | 0.00 | 0.00 | 0.00 | 56 | 1012.7 |
| 20260504224042 | 56 | 341 | 1.0 | 10.0 | 0.00 | 0.00 | 0.00 | 56 | 1012.8 |
| 20260504223544 | 56 | 331 | 3.0 | 10.0 | 0.00 | 0.00 | 0.00 | 55 | 1012.8 |
| 20260504223104 | 56 | 327 | 2.0 | 6.0 | 0.00 | 0.00 | 0.00 | 56 | 1012.8 |
| 20260504222542 | 56 | 296 | 2.0 | 7.0 | 0.00 | 0.00 | 0.00 | 56 | 1012.8 |
| 20260504222041 | 56 | 257 | 2.0 | 8.0 | 0.00 | 0.00 | 0.00 | 57 | 1012.8 |
| 20260504221555 | 56 | 290 | 1.0 | 8.0 | 0.00 | 0.00 | 0.00 | 57 | 1012.9 |
| 20260504221042 | 56 | 299 | 2.0 | 8.0 | 0.00 | 0.00 | 0.00 | 57 | 1012.9 |
| 20260504220542 | 56 | 255 | 1.0 | 8.0 | 0.00 | 0.00 | 0.00 | 57 | 1013.0 |
| 20260504215545 | 56 | 307 | 2.0 | 8.0 | 0.00 | 0.00 | 0.00 | 57 | 1013.0 |
| 20260504215041 | 56 | 351 | 1.0 | 8.0 | 0.00 | 0.00 | 0.00 | 57 | 1013.0 |
| 20260504214555 | 56 | 292 | 1.0 | 8.0 | 0.00 | 0.00 | 0.00 | 57 | 1013.1 |
| 20260504214045 | 56 | 290 | 1.0 | 8.0 | 0.00 | 0.00 | 0.00 | 57 | 1013.0 |
| 20260504213545 | 56 | 265 | 3.0 | 8.0 | 0.00 | 0.00 | 0.00 | 56 | 1013.1 |
| 20260504213050 | 56 | 205 | 1.0 | 5.0 | 0.00 | 0.00 | 0.00 | 56 | 1013.1 |
| 20260504212547 | 56 | 315 | 1.0 | 4.0 | 0.00 | 0.00 | 0.00 | 56 | 1013.1 |
| 20260504212042 | 56 | 0 | 0.0 | 3.0 | 0.00 | 0.00 | 0.00 | 56 | 1013.1 |
| 20260504211644 | 56 | 0 | 0.0 | 4.0 | 0.00 | 0.00 | 0.00 | 56 | 1013.1 |
| 20260504211043 | 56 | 0 | 0.0 | 4.0 | 0.00 | 0.00 | 0.00 | 55 | 1013.0 |
| 20260504210542 | 57 | 313 | 0.0 | 3.0 | 0.00 | 0.00 | 0.00 | 55 | 1013.1 |
| 20260504210055 | 57 | 279 | 0.0 | 3.0 | 0.00 | 0.00 | 0.00 | 54 | 1013.1 |
| 20260504205542 | 57 | 0 | 0.0 | 3.0 | 0.00 | 0.00 | 0.00 | 54 | 1013.1 |
| 20260504205042 | 57 | 0 | 0.0 | 4.0 | 0.00 | 0.00 | 0.00 | 53 | 1013.0 |
| 20260504204604 | 57 | 297 | 1.0 | 5.0 | 0.00 | 0.00 | 0.00 | 53 | 1012.9 |
| 20260504204044 | 57 | 288 | 1.0 | 5.0 | 0.00 | 0.00 | 0.00 | 53 | 1012.9 |
| 20260504203542 | 57 | 311 | 1.0 | 7.0 | 0.00 | 0.00 | 0.00 | 53 | 1012.9 |
| 20260504203053 | 57 | 295 | 1.0 | 7.0 | 0.00 | 0.00 | 0.00 | 53 | 1012.9 |
| 20260504202543 | 57 | 280 | 1.0 | 6.0 | 0.00 | 0.00 | 0.00 | 54 | 1012.8 |
| 20260504202042 | 57 | 283 | 1.0 | 9.0 | 0.00 | 0.00 | 0.00 | 54 | 1012.9 |
| 20260504201612 | 57 | 341 | 1.0 | 9.0 | 0.00 | 0.00 | 0.00 | 55 | 1012.8 |
| 20260504201042 | 57 | 300 | 2.0 | 9.0 | 0.00 | 0.00 | 0.00 | 54 | 1012.8 |
| 20260504200543 | 57 | 288 | 1.0 | 9.0 | 0.00 | 0.00 | 0.00 | 54 | 1012.7 |
| 20260504200056 | 57 | 148 | 2.0 | 9.0 | 0.00 | 0.00 | 0.00 | 55 | 1012.6 |
| 20260504195543 | 57 | 320 | 2.0 | 8.0 | 0.00 | 0.00 | 0.00 | 56 | 1012.5 |
| 20260504195042 | 57 | 293 | 0.0 | 7.0 | 0.00 | 0.00 | 0.00 | 56 | 1012.5 |
| 20260504194605 | 57 | 341 | 1.0 | 5.0 | 0.00 | 0.00 | 0.00 | 56 | 1012.4 |
| 20260504194042 | 58 | 297 | 1.0 | 4.0 | 0.00 | 0.00 | 0.00 | 56 | 1012.4 |
| 20260504193542 | 58 | 317 | 1.0 | 8.0 | 0.00 | 0.00 | 0.00 | 56 | 1012.3 |
| 20260504193049 | 58 | 0 | 1.0 | 8.0 | 0.00 | 0.00 | 0.00 | 56 | 1012.2 |
| 20260504192542 | 58 | 289 | 2.0 | 6.0 | 0.00 | 0.00 | 0.00 | 56 | 1012.2 |
| 20260504192042 | 58 | 336 | 1.0 | 6.0 | 0.00 | 0.00 | 0.00 | 56 | 1012.1 |
| 20260504191609 | 58 | 0 | 1.0 | 7.0 | 0.00 | 0.00 | 0.00 | 56 | 1012.0 |
| 20260504191042 | 59 | 323 | 2.0 | 7.0 | 0.00 | 0.00 | 0.00 | 55 | 1012.0 |
| 20260504190543 | 59 | 0 | 2.0 | 9.0 | 0.00 | 0.00 | 0.00 | 55 | 1011.9 |
| 20260504190107 | 59 | 341 | 3.0 | 9.0 | 0.00 | 0.00 | 0.00 | 54 | 1011.8 |
| 20260504185541 | 59 | 316 | 2.0 | 10.0 | 0.00 | 0.00 | 0.00 | 54 | 1011.9 |
| 20260504185043 | 59 | 309 | 3.0 | 10.0 | 0.00 | 0.00 | 0.00 | 54 | 1011.9 |
| 20260504184553 | 59 | 326 | 3.0 | 10.0 | 0.00 | 0.00 | 0.00 | 54 | 1011.8 |
| 20260504184042 | 59 | 332 | 2.0 | 13.0 | 0.00 | 0.00 | 0.00 | 53 | 1011.8 |
| 20260504183548 | 60 | 331 | 2.0 | 13.0 | 0.00 | 0.00 | 0.00 | 53 | 1011.8 |
| 20260504183052 | 60 | 270 | 3.0 | 12.0 | 0.00 | 0.00 | 0.00 | 53 | 1011.8 |
| 20260504182545 | 60 | 303 | 6.0 | 12.0 | 0.00 | 0.00 | 0.00 | 52 | 1011.8 |
| 20260504182042 | 61 | 320 | 4.0 | 11.0 | 0.00 | 0.00 | 0.00 | 52 | 1011.8 |
| 20260504181600 | 61 | 260 | 3.0 | 10.0 | 0.00 | 0.00 | 0.00 | 52 | 1011.8 |
| 20260504181042 | 61 | 303 | 3.0 | 12.0 | 0.00 | 0.00 | 0.00 | 51 | 1011.8 |
| 20260504180542 | 61 | 49 | 3.0 | 12.0 | 0.00 | 0.00 | 0.00 | 50 | 1011.6 |
| 20260504180053 | 62 | 235 | 5.0 | 12.0 | 0.00 | 0.00 | 0.00 | 50 | 1011.6 |
| 20260504175542 | 62 | 280 | 5.0 | 15.0 | 0.00 | 0.00 | 0.00 | 50 | 1011.6 |
| 20260504175042 | 62 | 22 | 4.0 | 15.0 | 0.00 | 0.00 | 0.00 | 49 | 1011.5 |
| 20260504174548 | 62 | 282 | 5.0 | 15.0 | 0.00 | 0.00 | 0.00 | 49 | 1011.5 |
| 20260504174042 | 62 | 20 | 6.0 | 15.0 | 0.00 | 0.00 | 0.00 | 48 | 1011.4 |
| 20260504173541 | 63 | 282 | 5.0 | 15.0 | 0.00 | 0.00 | 0.00 | 48 | 1011.5 |
| 20260504173055 | 63 | 351 | 4.0 | 15.0 | 0.00 | 0.00 | 0.00 | 47 | 1011.4 |
| 20260504172541 | 63 | 351 | 5.0 | 15.0 | 0.00 | 0.00 | 0.00 | 46 | 1011.4 |
| 20260504172042 | 63 | 8 | 4.0 | 12.0 | 0.00 | 0.00 | 0.00 | 46 | 1011.4 |
| 20260504171548 | 63 | 292 | 4.0 | 11.0 | 0.00 | 0.00 | 0.00 | 46 | 1011.3 |
| 20260504171042 | 62 | 315 | 3.0 | 11.0 | 0.00 | 0.00 | 0.00 | 47 | 1011.3 |
| 20260504170542 | 63 | 331 | 4.0 | 12.0 | 0.00 | 0.00 | 0.00 | 46 | 1011.3 |
| 20260504160146 | 64 | 265 | 5.0 | 18.0 | 0.00 | 0.00 | 0.00 | 43 | 1011.1 |
| 20260504151049 | 67 | 30 | 5.0 | 14.0 | 0.00 | 0.00 | 0.00 | 33 | 1010.9 |
| 20260504150544 | 67 | 252 | 5.0 | 14.0 | 0.00 | 0.00 | 0.00 | 33 | 1010.9 |
| 20260504141048 | 67 | 355 | 5.0 | 22.0 | 0.00 | 0.00 | 0.00 | 33 | 1011.2 |
| 20260504140548 | 67 | 155 | 7.0 | 22.0 | 0.00 | 0.00 | 0.00 | 35 | 1011.1 |
| 20260504130546 | 66 | 230 | 3.0 | 13.0 | 0.00 | 0.00 | 0.00 | 39 | 1011.5 |
| 20260504120104 | 66 | 313 | 4.0 | 15.0 | 0.00 | 0.00 | 0.00 | 44 | 1011.9 |
| 20260504110547 | 65 | 13 | 5.0 | 14.0 | 0.00 | 0.00 | 0.00 | 45 | 1012.3 |
| 20260504100545 | 62 | 201 | 2.0 | 11.0 | 0.00 | 0.00 | 0.00 | 55 | 1012.8 |
| 20260504081550 | 55 | 322 | 0.0 | 4.0 | 0.00 | 0.00 | 0.00 | 69 | 1012.6 |
| 20260504081045 | 55 | 300 | 0.0 | 4.0 | 0.00 | 0.00 | 0.00 | 69 | 1012.6 |
| 20260504080545 | 55 | 247 | 1.0 | 4.0 | 0.00 | 0.00 | 0.00 | 70 | 1012.6 |
| 20260504050545 | 51 | 275 | 0.0 | 5.0 | 0.00 | 0.00 | 0.00 | 75 | 1011.4 |
| 20260504045544 | 52 | 263 | 3.0 | 6.0 | 0.00 | 0.00 | 0.00 | 74 | 1011.4 |
| 20260504045044 | 52 | 195 | 1.0 | 4.0 | 0.00 | 0.00 | 0.00 | 73 | 1011.4 |
| 20260504044549 | 53 | 0 | 0.0 | 4.0 | 0.00 | 0.00 | 0.00 | 73 | 1011.4 |
| 20260504044042 | 53 | 232 | 1.0 | 4.0 | 0.00 | 0.00 | 0.00 | 73 | 1011.4 |
| 20260504043546 | 53 | 0 | 1.0 | 5.0 | 0.00 | 0.00 | 0.00 | 73 | 1011.5 |
| 20260504043056 | 53 | 238 | 2.0 | 5.0 | 0.00 | 0.00 | 0.00 | 73 | 1011.5 |
| 20260504042542 | 52 | 244 | 0.0 | 5.0 | 0.00 | 0.00 | 0.00 | 74 | 1011.5 |
| 20260504042048 | 52 | 211 | 2.0 | 4.0 | 0.00 | 0.00 | 0.00 | 74 | 1011.4 |
| 20260504041546 | 52 | 0 | 0.0 | 4.0 | 0.00 | 0.00 | 0.00 | 75 | 1011.5 |
| 20260504041042 | 52 | 0 | 1.0 | 4.0 | 0.00 | 0.00 | 0.00 | 75 | 1011.5 |
| 20260504040543 | 52 | 238 | 1.0 | 4.0 | 0.00 | 0.00 | 0.00 | 75 | 1011.6 |
| 20260504040128 | 52 | 0 | 0.0 | 3.0 | 0.00 | 0.00 | 0.00 | 75 | 1011.6 |
| 20260504035544 | 52 | 258 | 0.0 | 3.0 | 0.00 | 0.00 | 0.00 | 74 | 1011.6 |
| 20260504035045 | 52 | 289 | 0.0 | 4.0 | 0.00 | 0.00 | 0.00 | 74 | 1011.6 |
| 20260504034601 | 52 | 243 | 0.0 | 4.0 | 0.00 | 0.00 | 0.00 | 74 | 1011.6 |
| 20260504034042 | 52 | 247 | 0.0 | 4.0 | 0.00 | 0.00 | 0.00 | 74 | 1011.6 |
| 20260504033545 | 52 | 0 | 0.0 | 4.0 | 0.00 | 0.00 | 0.00 | 73 | 1011.7 |
| 20260504033051 | 53 | 257 | 1.0 | 7.0 | 0.00 | 0.00 | 0.00 | 73 | 1011.6 |
| 20260504032545 | 53 | 302 | 1.0 | 7.0 | 0.00 | 0.00 | 0.00 | 73 | 1011.6 |
| 20260504032046 | 53 | 257 | 2.0 | 7.0 | 0.00 | 0.00 | 0.00 | 73 | 1011.8 |
| 20260504031556 | 53 | 220 | 0.0 | 4.0 | 0.00 | 0.00 | 0.00 | 73 | 1011.7 |
| 20260504031051 | 53 | 0 | 0.0 | 3.0 | 0.00 | 0.00 | 0.00 | 73 | 1011.8 |
| 20260504030546 | 53 | 0 | 1.0 | 4.0 | 0.00 | 0.00 | 0.00 | 73 | 1011.8 |
| 20260504030050 | 53 | 0 | 1.0 | 4.0 | 0.00 | 0.00 | 0.00 | 72 | 1011.9 |
| 20260504025549 | 53 | 0 | 0.0 | 4.0 | 0.00 | 0.00 | 0.00 | 72 | 1011.9 |
| 20260504025045 | 53 | 313 | 2.0 | 5.0 | 0.00 | 0.00 | 0.00 | 72 | 1011.8 |
| 20260504024550 | 53 | 299 | 2.0 | 5.0 | 0.00 | 0.00 | 0.00 | 71 | 1011.7 |
| 20260504024048 | 53 | 291 | 1.0 | 4.0 | 0.00 | 0.00 | 0.00 | 72 | 1011.8 |
| 20260504023546 | 53 | 308 | 1.0 | 4.0 | 0.00 | 0.00 | 0.00 | 72 | 1011.8 |
| 20260504023050 | 53 | 308 | 1.0 | 4.0 | 0.00 | 0.00 | 0.00 | 71 | 1011.7 |
| 20260504022546 | 54 | 324 | 0.0 | 3.0 | 0.00 | 0.00 | 0.00 | 71 | 1011.7 |
| 20260504022047 | 54 | 0 | 0.0 | 4.0 | 0.00 | 0.00 | 0.00 | 70 | 1011.8 |
| 20260504021550 | 54 | 267 | 0.0 | 4.0 | 0.00 | 0.00 | 0.00 | 70 | 1011.9 |
| 20260504021046 | 54 | 265 | 1.0 | 8.0 | 0.00 | 0.00 | 0.00 | 69 | 1011.8 |
| 20260504020547 | 54 | 252 | 1.0 | 8.0 | 0.00 | 0.00 | 0.00 | 69 | 1011.7 |
| 20260504020107 | 55 | 334 | 1.0 | 5.0 | 0.00 | 0.00 | 0.00 | 69 | 1011.7 |
| 20260504015550 | 55 | 308 | 1.0 | 4.0 | 0.00 | 0.00 | 0.00 | 68 | 1011.8 |
| 20260504015045 | 55 | 265 | 1.0 | 4.0 | 0.00 | 0.00 | 0.00 | 68 | 1011.8 |
| 20260504014550 | 55 | 0 | 0.0 | 4.0 | 0.00 | 0.00 | 0.00 | 68 | 1011.9 |
| 20260504014045 | 55 | 207 | 0.0 | 4.0 | 0.00 | 0.00 | 0.00 | 67 | 1011.8 |
| 20260504013544 | 55 | 0 | 0.0 | 4.0 | 0.00 | 0.00 | 0.00 | 66 | 1011.9 |
| 20260504013049 | 55 | 0 | 0.0 | 4.0 | 0.00 | 0.00 | 0.00 | 66 | 1011.9 |
| 20260504012546 | 56 | 294 | 0.0 | 7.0 | 0.00 | 0.00 | 0.00 | 65 | 1011.9 |
| 20260504012046 | 56 | 0 | 1.0 | 7.0 | 0.00 | 0.00 | 0.00 | 65 | 1012.0 |
| 20260504011549 | 56 | 302 | 0.0 | 3.0 | 0.00 | 0.00 | 0.00 | 64 | 1011.9 |
| 20260504011046 | 56 | 0 | 0.0 | 3.0 | 0.00 | 0.00 | 0.00 | 64 | 1011.9 |
| 20260504010545 | 56 | 0 | 0.0 | 3.0 | 0.00 | 0.00 | 0.00 | 63 | 1011.9 |
| 20260504010054 | 57 | 305 | 1.0 | 4.0 | 0.00 | 0.00 | 0.00 | 62 | 1011.9 |
| 20260504005545 | 57 | 0 | 1.0 | 4.0 | 0.00 | 0.00 | 0.00 | 62 | 1012.0 |
| 20260504005049 | 57 | 238 | 1.0 | 5.0 | 0.00 | 0.00 | 0.00 | 61 | 1012.0 |
| 20260504004555 | 57 | 0 | 1.0 | 5.0 | 0.00 | 0.00 | 0.00 | 61 | 1012.0 |
| 20260504004046 | 57 | 229 | 1.0 | 4.0 | 0.00 | 0.00 | 0.00 | 60 | 1012.0 |
| 20260504003546 | 57 | 251 | 1.0 | 4.0 | 0.00 | 0.00 | 0.00 | 61 | 1012.0 |
| 20260504003053 | 57 | 256 | 0.0 | 4.0 | 0.00 | 0.00 | 0.00 | 61 | 1012.1 |
| 20260504002546 | 57 | 0 | 0.0 | 4.0 | 0.00 | 0.00 | 0.00 | 62 | 1012.1 |
| 20260504002047 | 57 | 0 | 0.0 | 4.0 | 0.00 | 0.00 | 0.00 | 62 | 1012.2 |
| 20260504001553 | 57 | 311 | 1.0 | 4.0 | 0.00 | 0.00 | 0.00 | 62 | 1012.2 |
| 20260504001046 | 57 | 0 | 0.0 | 3.0 | 0.00 | 0.00 | 0.00 | 62 | 1012.3 |
| 20260504000547 | 57 | 306 | 0.0 | 2.0 | 0.00 | 0.00 | 0.00 | 62 | 1012.3 |
| 20260504000056 | 57 | 0 | 0.0 | 3.0 | 0.00 | 0.00 | 0.00 | 63 | 1012.3 |
| 20260503235548 | 57 | 322 | 0.0 | 3.0 | 0.00 | 0.00 | 0.00 | 62 | 1012.4 |
| 20260503235049 | 57 | 312 | 0.0 | 3.0 | 0.00 | 0.00 | 0.00 | 62 | 1012.5 |